Flag for U.S.A. Weather past 2 weeks in Angels Camp, California, U.S.A.

Now
52 °F

Sunny.


Feels Like: 50 °F
Forecast: 31 / 53 °F
Wind: 6 mph from Northwest

Location: Modesto City-County-Sham Field

Current Time: Dec 28, 2014 at 12:49:41 PM

Latest Report: Dec 28, 2014 at 11:53 AM


Visibility: 10 mi

Pressure: 30.31 "Hg

Humidity: 59%

Dew point: 38 °F

Location of Angels CampLocation

Historic Weather in Angels Camp — Graph

°F

Angels Camp temperature yesterday

Maximum temperature yesterday: 54 °F (at 1:53 PM)
Minimum temperature yesterday: 33 °F (at 2:53 AM)
Average temperature yesterday: 42 °F

Past Weeks' High & Low Weather Summary

 TemperatureHumidityPressure
High65 °F (Dec 21, 1:53 PM)97% (Dec 14, 2:53 AM)32.98 "Hg (Dec 14, 2:53 AM)
Low33 °F (Dec 27, 2:53 AM)33% (Dec 25, 1:53 PM)29.85 "Hg (Dec 16, 4:53 PM)
Average51 °F82%30.15 "Hg
* Reported Dec 13 11:00 AM — Dec 28 11:53 AM, Angels Camp, Weather by CustomWeather, © 2014

Note: Actual official high and low records may vary slightly from our data, if they occured in-between our weather recording intervals... More about our weather records

Advertising

Angels Camp weather history for previous 24 hours

 ConditionsComfort  
Time TempWeatherWind HumidityBarometerVisibility
11:53 AM
Dec 28
52 °FSunny.6 mph59%30.31 "Hg10 mi
10:53 AM50 °FSunny.No wind66%30.34 "Hg9 mi
9:53 AM45 °FSunny.5 mph80%30.35 "Hg5 mi
9:01 AM42 °FFog.5 mph89%30.34 "Hg3 mi
7:53 AM39 °FFog.No wind93%30.33 "Hg3 mi
6:53 AM39 °FFog.No wind89%30.33 "Hg4 mi
5:53 AM39 °FFog.No wind93%30.32 "Hg4 mi
4:53 AM38 °FFog.No wind93%30.31 "Hg4 mi
3:53 AM39 °FFog.No wind89%30.33 "Hg3 mi
2:53 AM41 °FFog.No wind86%30.35 "Hg5 mi
1:53 AM41 °FFog.No wind86%30.36 "Hg5 mi
1:00 AM39 °FFog.No wind89%30.36 "Hg3 mi
11:53 PM
Dec 27
40 °FFog.No wind86%30.37 "Hg3 mi
10:53 PM42 °FClear.No wind82%30.38 "Hg4 mi
9:53 PM40 °FFog.No wind89%30.38 "Hg5 mi
8:53 PM41 °FFog.No wind86%30.38 "Hg6 mi
7:53 PM43 °FClear.No wind82%30.37 "Hg7 mi
6:53 PM44 °FClear.No wind76%30.37 "Hg8 mi
5:53 PM46 °FClear.No wind73%30.36 "Hg9 mi
4:53 PM52 °FClear.3 mph57%30.34 "Hg10 mi
3:53 PM54 °FSunny.5 mph51%30.34 "Hg10 mi
2:53 PM54 °FSunny.No wind49%30.34 "Hg10 mi
1:53 PM54 °FSunny.6 mph51%30.34 "Hg10 mi
12:53 PM53 °FSunny.6 mph59%30.35 "Hg10 mi
Weather by CustomWeather, © 2014

See weather overviewHow to use our weather pages